TimeCST,TemperatureF,Dew PointF,Humidity,Sea Level PressureIn,VisibilityMPH,Wind Direction,Wind SpeedMPH,Gust SpeedMPH,PrecipitationIn,Events,Conditions,WindDirDegrees,DateUTC
12:46 AM,21.0,10.9,65,30.29,2.5,ESE,5.8,-,0.00,Snow,Light Snow,110,2014-02-24 06:46:00
12:53 AM,19.9,12.0,71,30.38,1.5,East,6.9,-,0.00,Snow,Light Snow,80,2014-02-24 06:53:00
1:07 AM,19.0,15.1,85,30.29,1.0,ESE,4.6,-,0.00,Snow,Light Snow,110,2014-02-24 07:07:00
1:19 AM,19.0,15.1,85,30.29,1.0,East,4.6,-,0.00,Snow,Light Snow,100,2014-02-24 07:19:00
1:26 AM,19.0,15.1,85,30.28,1.5,ESE,6.9,-,0.00,Snow,Light Snow,110,2014-02-24 07:26:00
1:41 AM,19.0,15.1,85,30.28,2.0,ESE,6.9,-,0.00,Snow,Light Snow,110,2014-02-24 07:41:00
1:53 AM,19.0,15.1,85,30.38,1.5,East,5.8,-,0.00,Snow,Light Snow,100,2014-02-24 07:53:00
2:02 AM,19.0,16.0,88,30.29,0.8,East,6.9,-,0.00,Snow,Light Snow,90,2014-02-24 08:02:00
2:09 AM,19.0,16.0,88,30.28,0.5,East,5.8,-,0.01,Fog-Snow,Snow,100,2014-02-24 08:09:00
2:31 AM,19.0,16.0,88,30.27,1.0,ESE,8.1,-,0.03,Snow,Light Snow,110,2014-02-24 08:31:00
2:36 AM,19.0,16.0,88,30.26,1.2,ESE,6.9,-,0.03,Snow,Light Snow,120,2014-02-24 08:36:00
2:53 AM,19.0,16.0,88,30.35,1.8,ESE,5.8,-,0.03,Snow,Light Snow,110,2014-02-24 08:53:00
3:22 AM,18.0,15.1,88,30.25,2.0,ESE,6.9,-,0.00,Snow,Light Snow,110,2014-02-24 09:22:00
3:44 AM,18.0,15.1,88,30.24,3.0,ESE,8.1,-,0.00,Snow,Light Snow,120,2014-02-24 09:44:00
3:53 AM,18.0,15.1,88,30.33,3.0,ESE,6.9,-,0.00,Snow,Light Snow,110,2014-02-24 09:53:00
4:53 AM,18.0,14.0,84,30.31,8.0,ESE,9.2,-,0.00,,Overcast,110,2014-02-24 10:53:00
5:34 AM,18.0,14.0,84,30.23,10.0,ESE,8.1,-,N/A,,Overcast,120,2014-02-24 11:34:00
5:53 AM,18.0,14.0,84,30.32,10.0,ESE,8.1,-,N/A,,Overcast,120,2014-02-24 11:53:00
6:53 AM,18.0,14.0,84,30.33,10.0,ESE,6.9,-,N/A,,Overcast,120,2014-02-24 12:53:00
7:14 AM,18.0,14.0,84,30.22,9.0,ESE,9.2,-,N/A,,Overcast,120,2014-02-24 13:14:00
7:35 AM,18.0,14.0,84,30.22,8.0,ESE,12.7,-,N/A,,Overcast,120,2014-02-24 13:35:00
7:53 AM,18.0,14.0,84,30.32,7.0,SE,10.4,-,N/A,,Overcast,130,2014-02-24 13:53:00
8:03 AM,18.0,14.0,84,30.22,6.0,SE,11.5,-,0.00,,Overcast,130,2014-02-24 14:03:00
8:10 AM,18.0,15.1,88,30.23,4.0,ESE,9.2,-,0.00,,Overcast,120,2014-02-24 14:10:00
8:24 AM,18.0,15.1,88,30.22,2.5,SE,8.1,-,0.00,,Overcast,130,2014-02-24 14:24:00
8:34 AM,18.0,15.1,88,30.21,3.0,SE,10.4,-,0.00,,Overcast,130,2014-02-24 14:34:00
8:53 AM,18.0,16.0,92,30.31,3.0,SE,10.4,-,0.00,,Overcast,130,2014-02-24 14:53:00
9:53 AM,19.0,17.1,92,30.31,6.0,SE,9.2,-,0.00,,Overcast,140,2014-02-24 15:53:00
10:53 AM,19.9,17.1,89,30.29,6.0,SSE,12.7,-,N/A,,Overcast,150,2014-02-24 16:53:00
11:27 AM,21.0,17.1,85,30.16,8.0,SE,16.1,-,N/A,,Overcast,140,2014-02-24 17:27:00
11:53 AM,21.9,17.1,82,30.25,9.0,SSE,16.1,-,N/A,,Overcast,150,2014-02-24 17:53:00
12:16 PM,23.0,17.1,78,30.14,8.0,SSE,12.7,21.9,N/A,,Overcast,150,2014-02-24 18:16:00
12:53 PM,23.0,17.1,78,30.20,7.0,South,17.3,23.0,N/A,,Overcast,170,2014-02-24 18:53:00
1:53 PM,24.1,17.1,75,30.19,9.0,SSE,12.7,19.6,N/A,,Overcast,160,2014-02-24 19:53:00
2:53 PM,24.1,17.1,75,30.22,8.0,SSE,8.1,-,N/A,,Overcast,150,2014-02-24 20:53:00
3:53 PM,25.0,18.0,75,30.23,3.0,SSE,5.8,-,0.00,Snow,Light Snow,150,2014-02-24 21:53:00
4:24 PM,25.0,19.0,78,30.12,9.0,South,6.9,-,0.00,,Overcast,170,2014-02-24 22:24:00
4:53 PM,26.1,18.0,71,30.23,10.0,South,4.6,-,0.00,,Overcast,170,2014-02-24 22:53:00
5:06 PM,26.1,18.0,71,30.13,10.0,South,4.6,-,N/A,,Overcast,180,2014-02-24 23:06:00
5:35 PM,26.1,18.0,71,30.14,3.0,South,4.6,-,0.00,Snow,Light Snow,190,2014-02-24 23:35:00
5:42 PM,26.1,19.0,75,30.15,2.0,South,3.5,-,0.00,Snow,Light Snow,190,2014-02-24 23:42:00
5:53 PM,25.0,19.0,78,30.25,2.5,Calm,Calm,-,0.00,Snow,Light Snow,0,2014-02-24 23:53:00
6:05 PM,25.0,19.9,81,30.16,3.0,Calm,Calm,-,0.00,Snow,Light Snow,0,2014-02-25 00:05:00
6:23 PM,25.0,19.9,81,30.17,1.8,SW,3.5,-,0.00,Snow,Light Snow,220,2014-02-25 00:23:00
6:31 PM,25.0,19.9,81,30.16,3.0,SSW,3.5,-,0.00,Snow,Light Snow,210,2014-02-25 00:31:00
6:45 PM,25.0,21.0,85,30.17,2.5,WSW,3.5,-,0.00,Snow,Light Snow,250,2014-02-25 00:45:00
6:53 PM,24.1,19.9,84,30.28,4.0,WSW,5.8,-,0.00,Snow,Light Snow,240,2014-02-25 00:53:00
7:53 PM,24.1,21.0,88,30.31,6.0,West,8.1,-,0.00,Snow,Light Snow,280,2014-02-25 01:53:00
7:58 PM,24.1,19.9,84,30.22,1.8,NNW,28.8,35.7,0.00,Snow,Light Snow,330,2014-02-25 01:58:00
8:07 PM,21.0,16.0,81,30.24,4.0,NNW,24.2,35.7,0.00,Snow,Light Snow,330,2014-02-25 02:07:00
8:15 PM,19.9,15.1,81,30.24,6.0,NNW,26.5,39.1,0.00,Snow,Light Snow,340,2014-02-25 02:15:00
8:49 PM,17.6,10.4,73,30.27,10.0,NNW,25.3,32.2,0.00,,Overcast,340,2014-02-25 02:49:00
8:53 PM,17.1,10.9,77,30.40,10.0,NNW,21.9,32.2,0.00,,Overcast,330,2014-02-25 02:53:00
9:53 PM,10.9,3.9,73,30.47,10.0,NNW,20.7,28.8,0.00,,Overcast,330,2014-02-25 03:53:00
10:18 PM,10.0,3.0,73,30.35,10.0,NNW,23.0,29.9,N/A,,Scattered Clouds,330,2014-02-25 04:18:00
10:53 PM,9.0,3.0,77,30.48,10.0,NNW,20.7,-,N/A,,Clear,340,2014-02-25 04:53:00
11:53 PM,7.0,1.0,77,30.51,10.0,NNW,15.0,24.2,N/A,,Scattered Clouds,330,2014-02-25 05:53:00